Presure
291 315 334 317 295 285 272 266 260 257 259 264 266 271 275 283 284 288 292 298 301 280 270 271 272 266 267 270 272 271 275 279 282 285 284 291 288 278 282 289 294 297 291
330 348 305 269 262 262 254 255 254 254 253 252 249 250 257 255 258 262 258 265 261 259 258 256 252 255 263 259 261 267 292 293 295 293 276 276 280 287 293 290 285 286 289
307 267 262 258 253 251 247 243 242 244 245 246 248 249 249 247 247 244 249 254 251 250 249 247 244 250 254 251 252 274 287 276 274 296 292 300 296 286 298 290 291 291 303
264 258 252 247 245 242 234 234 237 240 241 241 242 244 248 245 249 250 247 243 242 242 243 243 241 240 250 252 248 245 254 279 271 271 283 271 282 277 286 305 290 295 294
248 245 240 238 233 236 230 231 231 240 241 256 252 256 258 265 284 253 245 246 246 244 245 243 241 241 242 250 250 242 244 252 272 270 266 269 259 231 267 277 293 313 328
235 236 231 230 225 227 230 240 243 248 256 265 277 273 272 272 319 324 302 280 250 245 250 245 246 247 237 247 247 247 230 241 278 264 261 256 252 276 255 265 288 294 305
228 227 225 222 227 236 243 243 248 249 249 254 258 249 286 280 298 299 397 380 327 324 268 248 241 245 253 244 245 253 248 240 242 281 262 259 267 261 276 255 273 281 304
226 223 230 222 237 239 239 240 248 253 252 251 258 262 266 285 282 291 286 378 379 375 363 357 288 266 242 247 250 248 248 242 245 243 280 261 265 271 282 262 268 356 332
227 223 227 236 235 230 236 239 239 246 266 275 266 259 263 264 279 280 280 283 300 377 375 356 351 334 322 282 237 237 243 245 240 251 237 271 257 256 277 269 324 349 346
224 232 233 231 229 229 227 228 236 237 241 277 277 280 272 266 262 273 272 276 275 270 297 376 359 351 341 325 302 287 249 242 243 243 255 252 269 258 267 268 286 325 332
223 234 228 227 227 228 225 233 236 244 234 242 258 282 279 274 268 268 276 270 269 269 262 273 284 305 359 359 350 300 288 280 259 246 249 253 261 263 261 266 273 299 312
235 229 227 225 227 223 226 230 233 227 242 247 279 289 282 278 275 272 270 274 272 268 269 267 267 270 281 297 331 384 340 288 280 270 256 247 254 260 260 259 259 272 298
233 226 224 218 224 219 223 217 231 229 236 240 298 292 290 282 277 275 274 273 272 272 267 271 273 268 266 268 275 286 312 352 326 277 273 262 251 256 257 256 262 258 270
231 224 219 221 220 222 214 224 233 228 229 240 269 300 295 291 282 278 278 276 273 273 274 271 270 273 276 264 268 266 273 285 309 344 302 276 269 263 259 253 253 260 261
232 220 218 226 217 218 220 227 227 229 228 239 249 298 298 291 285 282 280 281 281 279 278 277 277 275 273 268 273 279 275 266 284 294 316 344 281 271 271 267 249 255 263
219 221 221 216 223 218 218 232 235 230 236 241 246 263 304 292 287 286 285 283 282 280 281 279 277 278 280 286 294 303 311 314 317 316 323 306 327 332 278 271 281 258 264
215 219 223 222 220 225 233 234 228 234 244 241 243 259 293 296 298 290 287 287 288 289 290 295 299 306 318 321 323 364 369 368 374 403 405 403 347 317 333 291 278 274 285
217 224 217 217 220 217 236 227 232 228 240 241 241 255 288 297 283 281 285 292 299 303 307 311 314 332 373 365 358 355 360 363 361 353 357 365 370 377 383 336 335 299 275
224 217 217 217 215 231 235 233 230 227 240 241 248 257 273 289 285 287 291 292 295 299 309 318 357 353 351 347 339 331 326 324 327 334 340 352 355 353 357 360 369 388 377
225 215 216 222 225 238 234 229 229 237 241 240 252 264 286 293 290 293 299 295 299 311 341 338 325 319 316 314 313 313 313 313 311 311 312 317 322 333 335 333 336 342 356
225 220 217 221 226 234 230 229 231 243 242 247 264 289 298 300 305 305 297 307 330 345 335 324 314 310 307 300 297 297 299 301 304 307 308 310 312 317 318 324 328 320 321
216 216 222 223 235 227 233 235 244 241 245 263 298 307 313 312 304 302 326 349 339 327 319 313 311 308 304 302 302 304 308 315 330 345 349 348 348 350 332 331 323 326 328
220 228 217 232 228 229 234 240 241 247 264 303 316 319 306 301 331 358 342 329 321 313 306 301 300 303 308 314 325 337 336 327 319 317 319 326 333 381 384 383 386 351 354
232 231 232 228 232 231 236 240 250 264 302 323 314 303 325 363 337 312 309 308 307 308 309 313 321 326 334 332 315 311 315 323 328 338 401 403 389 383 395 438 439 443 445
227 236 227 231 233 231 240 250 268 310 318 308 309 353 322 312 322 325 328 330 333 336 339 341 339 312 309 313 318 324 330 366 401 383 373 427 423 410 402 405 408 411 416
229 227 231 229 234 240 251 270 305 316 310 322 329 314 335 315 295 299 305 307 309 310 310 313 316 317 319 323 328 389 394 372 381 416 402 387 387 387 392 399 400 401 406
Wind_Speed
60 60 48 32 22 17 16 18 21 23 24 24 25 23 24 25 26 26 27 28 26 29 34 37 38 42 44 47 49 51 55 58 61 65 70 71 77 80 80 81 82 86 92
39 34 19 15 18 19 22 23 23 25 27 28 29 29 25 25 26 26 27 27 30 33 33 35 39 39 41 44 45 45 42 42 47 53 67 70 71 71 76 83 85 86 90
13 13 15 18 20 20 21 24 27 28 30 31 32 33 34 36 34 33 34 34 35 37 38 39 40 41 42 43 44 41 43 44 45 43 48 53 57 64 67 76 81 83 82
12 13 16 19 19 22 27 30 32 34 36 38 38 39 39 39 41 42 41 42 44 44 43 44 45 46 43 45 46 44 42 47 44 42 44 50 47 51 59 62 76 80 84
14 15 18 20 25 26 29 32 35 37 38 39 40 42 44 46 48 47 48 50 49 48 48 48 48 51 49 47 47 47 44 42 45 44 45 46 54 48 57 63 63 68 72
18 18 20 23 28 32 34 34 35 36 36 37 38 41 45 47 39 43 52 57 55 54 55 54 53 52 54 54 51 51 56 47 48 49 49 53 59 56 68 65 62 67 73
18 21 25 30 32 34 32 34 36 37 38 38 38 42 36 37 34 35 26 29 48 53 64 58 54 55 58 57 58 57 52 51 50 52 55 54 55 58 64 71 70 72 73
20 24 26 30 28 30 32 35 39 41 42 42 41 39 38 36 34 32 32 29 30 31 34 38 66 66 58 58 57 60 58 54 53 52 54 57 58 58 57 71 74 58 75
22 26 27 27 28 30 33 35 38 42 44 44 46 44 42 39 36 34 32 30 29 31 32 35 40 48 57 65 60 57 60 62 56 56 56 57 59 57 56 58 47 44 69
24 26 26 27 29 31 33 36 40 42 44 45 45 42 43 42 40 36 34 32 32 32 30 34 38 41 47 52 58 63 66 65 65 60 62 59 60 61 58 53 47 38 47
26 26 28 30 33 34 35 42 44 50 47 50 50 44 42 42 41 39 37 34 32 33 36 32 31 28 40 44 49 57 61 65 68 67 66 65 64 62 60 57 50 49 52
27 28 30 32 35 35 40 43 46 45 54 54 51 45 44 43 43 42 40 38 36 34 34 36 37 36 35 33 35 43 53 63 66 70 71 68 69 67 65 63 59 56 55
29 32 34 34 37 37 41 39 51 50 53 55 50 47 46 45 44 44 44 43 42 40 39 37 38 40 41 42 41 41 41 46 61 70 73 74 72 73 71 68 68 64 61
32 34 36 39 38 42 40 48 55 53 54 58 58 50 48 46 45 45 46 46 46 46 45 44 44 44 45 49 48 50 50 51 52 55 71 78 78 78 77 76 71 73 71
35 37 39 43 40 43 47 54 55 57 57 62 63 55 51 50 49 49 48 49 49 49 50 50 51 51 52 53 54 54 57 61 60 61 63 65 83 85 84 83 78 77 81
37 40 42 42 48 46 48 61 62 61 64 64 65 63 55 55 53 53 52 53 53 54 55 57 58 59 59 61 63 64 65 66 66 66 68 71 73 78 91 90 91 87 89
40 42 44 47 50 56 60 61 61 65 66 66 67 69 61 58 57 57 57 57 60 61 62 65 67 68 70 69 69 61 58 57 56 54 56 59 73 80 81 97 98 97 99
42 45 45 48 52 53 63 61 65 64 70 71 70 73 67 63 63 62 62 63 64 66 67 68 68 66 56 54 54 53 52 52 52 52 53 54 57 60 63 81 89 104 102
46 45 49 52 53 65 66 68 68 65 73 74 77 78 75 68 67 68 67 67 67 67 68 67 54 52 49 47 47 48 49 50 50 49 51 52 54 57 59 62 65 64 76
49 49 52 59 63 68 69 69 71 76 79 78 82 82 76 72 71 70 70 69 70 70 61 55 53 51 50 49 50 51 52 53 55 56 57 57 57 58 61 64 66 68 68
51 54 56 60 66 70 71 73 75 83 83 84 86 81 76 74 72 70 70 71 68 58 55 54 55 55 55 55 56 57 58 60 61 62 64 64 64 66 67 68 71 74 76
51 54 61 65 70 70 75 77 83 83 85 87 82 78 75 72 71 71 70 59 56 55 54 55 57 58 59 61 63 65 67 68 68 68 67 67 69 71 74 75 77 78 80
57 64 61 69 70 73 78 83 84 86 89 83 78 74 72 73 70 59 57 56 57 57 59 60 62 64 67 68 68 66 65 65 66 68 70 72 74 71 72 73 74 81 82
62 65 68 69 75 76 80 84 88 90 86 75 74 74 72 58 59 62 62 62 62 64 65 67 68 68 67 65 64 66 68 71 72 74 68 66 67 69 69 63 62 62 62
64 69 69 75 78 78 85 88 90 84 76 76 75 62 64 64 64 64 65 66 67 67 67 67 66 64 66 68 70 72 73 72 65 67 69 63 59 57 57 57 57 57 57
67 70 75 76 80 85 88 90 84 77 76 72 64 65 62 61 65 65 65 66 66 66 67 68 69 70 70 72 73 69 65 67 68 61 57 56 55 55 55 55 55 56 56
Wind_Direction
288 285 286 283 287 297 300 298 298 299 296 297 300 304 301 294 287 279 273 266 258 246 249 250 251 253 255 257 254 251 249 247 247 248 248 246 242 240 239 238 237 234 231
281 289 271 282 281 282 286 295 300 303 302 299 292 288 286 279 278 272 262 252 248 249 251 252 255 262 263 261 258 259 254 252 249 246 245 247 242 239 240 239 236 234 232
259 257 266 270 282 296 296 296 298 299 297 295 293 289 284 279 272 268 267 258 252 254 253 252 256 265 266 261 259 262 260 249 246 253 244 243 244 243 241 238 236 234 234
248 257 271 280 288 294 288 288 293 295 294 293 291 289 285 281 276 272 266 264 264 260 259 258 259 259 263 264 258 256 260 259 250 247 243 238 239 242 241 242 236 236 231
257 264 274 287 286 298 296 297 295 296 295 296 292 291 289 288 281 274 273 269 265 262 261 257 258 261 260 261 260 255 255 261 252 249 243 244 237 245 237 239 244 240 235
266 275 285 298 294 297 299 300 300 304 312 312 306 300 294 295 296 283 270 263 266 267 263 262 261 259 261 264 258 256 249 252 253 252 247 241 239 246 237 238 245 241 237
280 294 294 292 297 301 305 306 311 310 309 310 306 301 305 302 307 295 299 288 266 263 260 262 263 261 259 256 260 261 254 251 252 252 250 248 249 244 244 241 244 241 237
289 287 295 289 304 311 313 316 319 317 313 310 310 308 310 313 308 310 296 302 292 282 275 266 257 258 258 256 254 256 258 252 254 253 252 250 253 251 252 243 247 249 238
290 290 299 306 311 309 318 324 323 324 320 313 311 309 308 310 312 311 305 304 308 294 276 269 263 257 255 256 256 255 256 259 256 258 251 252 252 250 253 251 258 241 237
292 306 305 308 308 313 314 318 325 325 325 323 317 312 308 306 306 306 304 305 301 293 307 281 274 271 265 258 254 254 253 256 258 259 259 255 254 254 256 250 259 239 247
297 307 305 309 311 314 314 325 327 326 322 324 325 314 309 305 303 302 301 296 294 292 286 292 293 292 277 274 264 250 249 251 252 256 258 259 257 257 256 256 258 243 235
310 306 307 309 313 314 320 325 326 324 327 325 323 314 308 305 303 301 299 297 293 288 287 285 283 281 282 282 282 274 261 249 249 249 253 256 257 256 256 255 253 255 248
308 304 307 308 313 316 320 316 325 325 325 324 321 315 309 303 302 299 297 296 293 289 283 284 282 276 274 273 273 273 275 270 255 247 249 250 253 254 254 253 253 250 251
304 303 306 309 313 316 310 320 323 324 324 324 326 316 311 306 302 300 298 295 293 291 289 285 282 280 278 270 266 265 265 266 267 263 249 247 248 247 248 252 250 250 247
300 302 307 310 311 314 318 321 321 321 322 323 325 320 313 308 305 303 300 298 296 293 291 289 286 283 278 272 272 271 263 260 261 261 259 256 247 248 245 244 250 249 248
302 303 307 308 315 316 317 318 318 320 321 321 323 324 314 311 308 306 304 301 299 296 294 291 288 285 282 281 282 281 280 276 272 268 263 256 253 250 247 248 241 248 248
300 305 309 312 313 315 316 316 316 318 320 320 322 323 318 313 308 307 305 303 301 299 296 295 293 292 291 290 288 287 285 281 279 279 276 274 259 251 251 246 247 247 242
300 306 309 310 313 315 314 315 316 317 320 320 320 321 319 312 312 309 307 305 303 302 300 299 298 296 294 292 290 287 287 286 283 278 276 275 273 270 268 252 250 245 248
303 306 309 311 312 314 314 314 315 317 318 318 320 319 319 314 311 310 308 306 306 304 302 301 300 300 298 296 292 289 287 286 284 284 282 281 277 271 267 265 265 267 258
304 307 309 310 312 314 313 313 314 318 318 318 318 318 316 312 310 308 307 307 306 305 303 300 299 299 297 296 293 291 288 286 283 281 279 277 275 274 269 264 262 261 262
304 306 308 310 312 313 312 313 316 316 317 317 317 315 313 310 309 308 308 307 306 303 302 299 298 296 295 292 291 289 287 285 283 281 279 277 275 272 268 267 265 259 258
303 306 308 310 310 311 312 314 314 315 316 316 315 313 311 311 310 310 308 305 305 304 302 300 298 297 296 295 293 291 290 288 287 286 284 282 280 277 272 269 266 264 262
303 304 306 307 309 310 313 314 314 315 315 315 314 313 313 312 310 308 308 307 305 304 303 302 300 299 297 296 295 294 293 291 289 287 285 283 282 283 280 277 274 268 266
304 306 307 308 309 312 313 314 314 316 316 314 314 314 312 310 311 311 309 308 306 304 302 301 300 300 299 298 296 295 294 293 292 291 293 292 288 286 284 285 282 280 278
305 308 307 309 311 313 313 313 315 315 314 314 314 312 312 312 311 310 308 307 305 304 304 303 303 302 301 300 300 299 297 298 298 295 294 296 293 291 288 286 284 282 279
306 307 308 310 311 311 312 315 315 313 313 313 312 312 313 313 313 313 312 311 310 309 307 306 305 304 303 302 301 302 301 300 300 301 298 296 294 292 290 288 286 283 282